Waarnemingen

Advertentie
Mijn weer
Brüssel, België (6451): temperatuur & dauwpunt: 14.03.2019 23:00:00 - 20.03.2019 23:00:00 (CET)Brüssel, België (6451): windsnelheid & windstoten: 14.03.2019 23:00:00 - 20.03.2019 23:00:00 (CET)Brüssel, België (6451): windrichting: 14.03.2019 23:00:00 - 20.03.2019 23:00:00 (CET)Brüssel, België (6451): luchtdruk: 14.03.2019 23:00:00 - 20.03.2019 23:00:00 (CET)Brüssel, België (6451): zicht: 14.03.2019 23:00:00 - 20.03.2019 23:00:00 (CET)
Datum & Tijd tt [°C] td [°C] ff [km/u] ff [kn] fx [km/u] fx [kn] dd ppp [hPa] vv [km]
20.03.2019 23:00:00 - - - - - - - - -
20.03.2019 22:00:00 7,0 6,0 5 3 - - ZW 1035,0 10
20.03.2019 21:00:00 9,4 6,9 5 3 7 4 ZW 1034,9 10
20.03.2019 20:00:00 10,4 6,7 8 4 11 6 ZW 1034,7 10
20.03.2019 19:00:00 11,7 6,7 9 5 - - W 1034,3 10
20.03.2019 18:00:00 12,0 6,6 9 5 18 10 W 1034,0 10
20.03.2019 17:00:00 12,7 6,3 11 6 18 10 W 1033,9 10
20.03.2019 16:00:00 12,8 6,3 9 5 - - W 1034,1 10
20.03.2019 15:00:00 12,4 6,6 13 7 25 14 WZW 1034,4 10
20.03.2019 14:00:00 12,2 6,4 15 8 25 14 W 1034,7 10
20.03.2019 13:00:00 11,5 6,4 13 7 - - WZW 1034,9 10
20.03.2019 12:00:00 11,1 6,2 11 6 22 12 W 1034,7 10
20.03.2019 11:00:00 10,5 6,4 11 6 25 14 ZW 1034,2 10
20.03.2019 10:00:00 9,8 5,7 13 7 - - WZW 1034,1 10
20.03.2019 09:00:00 8,1 5,0 11 6 18 10 ZW 1033,9 10
20.03.2019 08:00:00 6,9 5,1 11 6 14 8 ZZW 1033,3 10
20.03.2019 07:00:00 5,9 4,5 11 6 - - ZZW 1032,6 10
20.03.2019 06:00:00 6,3 4,7 5 3 11 6 ZW 1032,5 10
20.03.2019 05:00:00 6,4 4,8 9 5 14 8 Z 1032,0 10
20.03.2019 04:00:00 6,3 4,5 11 6 - - ZZW 1032,1 10
20.03.2019 03:00:00 5,7 3,9 9 5 11 6 ZZW 1032,2 10
20.03.2019 02:00:00 4,8 3,1 9 5 14 8 ZZW 1032,2 10
20.03.2019 01:00:00 5,7 3,2 11 6 - - ZW 1032,1 10
20.03.2019 00:00:00 6,5 3,8 9 5 11 6 Z 1031,6 10
19.03.2019 23:00:00 6,5 3,9 9 5 11 6 Z 1031,6 10
19.03.2019 22:00:00 6,6 3,7 8 4 - - ZZW 1031,5 10
19.03.2019 21:00:00 6,8 3,6 8 4 11 6 ZZW 1031,1 10
19.03.2019 20:00:00 7,6 4,3 5 3 11 6 Z 1030,5 10
19.03.2019 19:00:00 8,5 3,8 8 4 - - ZZW 1030,1 10
19.03.2019 18:00:00 9,2 4,1 9 5 14 8 ZZW 1029,7 10
19.03.2019 17:00:00 9,5 3,7 8 4 18 10 WZW 1029,4 10
19.03.2019 16:00:00 9,9 2,9 11 6 - - WZW 1029,2 10
19.03.2019 15:00:00 10,1 2,2 13 7 18 10 WZW 1029,3 10
19.03.2019 14:00:00 10,1 1,5 13 7 18 10 WZW 1029,3 10
19.03.2019 13:00:00 10,3 2,8 11 6 - - WZW 1029,4 10
19.03.2019 12:00:00 9,9 3,2 9 5 18 10 W 1029,4 10
19.03.2019 11:00:00 8,9 3,3 9 5 18 10 ZW 1029,0 10
19.03.2019 10:00:00 7,8 2,4 8 4 - - WZW 1028,7 10
19.03.2019 09:00:00 5,0 1,4 11 6 18 10 ZZW 1028,1 10
19.03.2019 08:00:00 2,3 0,4 13 7 14 8 ZZW 1027,7 10
19.03.2019 07:00:00 0,7 -0,7 11 6 - - ZZW 1027,2 10
19.03.2019 06:00:00 0,7 -0,8 11 6 14 8 ZZW 1026,9 10
19.03.2019 05:00:00 0,5 -0,9 11 6 11 6 ZZW 1026,8 10
19.03.2019 04:00:00 0,8 -0,5 9 5 - - Z 1026,3 10
19.03.2019 03:00:00 0,4 -0,8 9 5 11 6 Z 1025,8 10
19.03.2019 02:00:00 0,6 -0,7 8 4 11 6 Z 1025,7 10
19.03.2019 01:00:00 0,8 -0,5 5 3 - - Z 1025,7 10
19.03.2019 00:00:00 0,9 -0,2 8 4 7 4 Z 1025,6 10
18.03.2019 23:00:00 2,0 0,0 2 1 7 4 ZW 1025,2 10
18.03.2019 22:00:00 3,3 0,5 5 3 - - W 1024,8 10
18.03.2019 21:00:00 4,6 -0,5 4 2 14 8 WNW 1024,1 10
18.03.2019 20:00:00 5,6 -0,2 8 4 18 10 NNW 1023,4 10
18.03.2019 19:00:00 6,5 -0,4 11 6 - - NW 1022,7 10
18.03.2019 18:00:00 7,8 -0,2 11 6 32 18 NW 1021,9 10
18.03.2019 17:00:00 8,3 -0,1 18 10 25 14 N 1021,3 10
18.03.2019 16:00:00 8,4 0,2 13 7 - - WNW 1021,0 10
18.03.2019 15:00:00 9,4 -0,4 21 11 36 19 NW 1020,5 10
18.03.2019 14:00:00 8,9 2,6 16 9 36 19 W 1020,5 10
18.03.2019 13:00:00 5,6 1,1 26 14 - - NNW 1020,5 10
18.03.2019 12:00:00 7,5 1,8 18 10 32 18 WNW 1020,2 10
18.03.2019 11:00:00 7,3 3,4 13 7 25 14 WZW 1019,7 10
18.03.2019 10:00:00 6,2 4,0 13 7 - - W 1019,3 10
18.03.2019 09:00:00 4,9 2,9 13 7 22 12 WZW 1018,3 10
18.03.2019 08:00:00 3,1 2,0 13 7 22 12 ZW 1017,5 10
18.03.2019 07:00:00 2,7 1,6 15 8 - - WZW 1016,5 10
18.03.2019 06:00:00 2,9 1,8 16 9 25 14 WZW 1015,9 10
18.03.2019 05:00:00 2,2 1,1 16 9 25 14 ZW 1015,0 10
18.03.2019 04:00:00 2,3 1,0 21 11 - - ZW 1014,4 10
18.03.2019 03:00:00 2,6 0,9 22 12 32 18 ZW 1014,1 10
18.03.2019 02:00:00 3,0 0,9 21 11 32 18 WZW 1013,7 10
18.03.2019 01:00:00 2,7 1,2 21 11 - - ZW 1013,3 10
18.03.2019 00:00:00 3,1 1,2 21 11 32 18 ZW 1012,9 10
17.03.2019 23:00:00 3,1 1,5 18 10 29 16 ZW 1012,4 10
17.03.2019 22:00:00 3,0 1,6 13 7 - - WZW 1012,0 10
17.03.2019 21:00:00 4,1 1,3 26 14 40 21 W 1011,9 10
17.03.2019 20:00:00 4,4 0,3 15 8 36 19 WZW 1010,3 10
17.03.2019 19:00:00 4,5 0,6 21 11 - - WZW 1009,9 10
17.03.2019 18:00:00 4,3 0,6 26 14 54 29 WZW 1009,4 10
17.03.2019 17:00:00 3,5 0,4 37 20 61 33 NW 1008,2 5
17.03.2019 16:00:00 7,4 1,6 21 11 - - W 1006,7 10
17.03.2019 15:00:00 5,4 1,6 24 13 43 23 W 1006,6 10
17.03.2019 14:00:00 6,1 1,7 21 11 61 33 WZW 1005,9 10
17.03.2019 13:00:00 8,8 0,6 31 17 - - W 1005,1 10
17.03.2019 12:00:00 8,5 1,8 29 16 47 25 WZW 1004,5 10
17.03.2019 11:00:00 7,9 2,6 28 15 50 27 W 1003,9 10
17.03.2019 10:00:00 7,9 2,5 28 15 - - WZW 1003,0 10
17.03.2019 09:00:00 7,5 4,0 29 16 47 25 W 1002,1 10
17.03.2019 08:00:00 7,1 4,6 22 12 40 21 WZW 1001,1 10
17.03.2019 07:00:00 7,4 4,5 22 12 - - WZW 999,8 10
17.03.2019 06:00:00 7,8 6,3 34 18 54 29 WZW 999,2 6
17.03.2019 05:00:00 8,6 5,5 31 17 58 31 ZW 998,4 10
17.03.2019 04:00:00 8,8 4,8 31 17 - - ZZW 998,6 10
17.03.2019 03:00:00 9,6 4,1 39 21 61 33 ZW 999,2 10
17.03.2019 02:00:00 9,8 3,5 35 19 68 37 ZW 999,8 10
17.03.2019 01:00:00 9,9 4,7 37 20 - - ZW 1000,8 10
17.03.2019 00:00:00 10,6 5,2 39 21 65 35 ZW 1001,6 10
16.03.2019 23:00:00 11,2 6,6 28 15 50 27 ZW 1002,0 10
16.03.2019 22:00:00 11,2 6,5 34 18 - - ZZW 1002,4 10
16.03.2019 21:00:00 11,4 6,0 29 16 50 27 ZZW 1002,9 10
16.03.2019 20:00:00 11,5 5,9 28 15 43 23 ZZW 1003,6 10
16.03.2019 19:00:00 11,5 5,5 26 14 - - ZZW 1004,2 10
16.03.2019 18:00:00 11,4 5,6 29 16 47 25 ZZW 1004,8 10
16.03.2019 17:00:00 11,2 5,8 29 16 50 27 ZW 1005,9 10
16.03.2019 16:00:00 11,0 5,7 34 18 - - ZW 1006,9 10
16.03.2019 15:00:00 10,9 6,0 37 20 68 37 ZW 1007,6 10
16.03.2019 14:00:00 10,6 5,3 46 25 68 37 WZW 1008,3 10
16.03.2019 13:00:00 10,8 6,2 37 20 - - WZW 1008,9 10
16.03.2019 12:00:00 10,2 6,7 34 18 61 33 WZW 1009,4 10
16.03.2019 11:00:00 10,8 6,3 37 20 61 33 WZW 1009,5 10
16.03.2019 10:00:00 10,6 6,6 35 19 - - WZW 1010,1 10
16.03.2019 09:00:00 9,8 7,2 37 20 54 29 ZW 1010,3 10
16.03.2019 08:00:00 9,8 7,4 34 18 61 33 WZW 1010,6 10
16.03.2019 07:00:00 9,8 7,7 35 19 - - WZW 1010,7 10
16.03.2019 06:00:00 9,8 8,2 37 20 61 33 WZW 1010,4 10
16.03.2019 05:00:00 9,8 8,5 39 21 54 29 WZW 1010,3 8
16.03.2019 04:00:00 9,8 8,9 26 14 - - WZW 1010,5 8
16.03.2019 03:00:00 7,9 7,5 5 3 22 12 WZW 1011,5 3,0
16.03.2019 02:00:00 8,0 7,1 16 9 29 16 W 1012,0 10
16.03.2019 01:00:00 8,5 7,3 22 12 - - W 1012,0 10
16.03.2019 00:00:00 9,0 7,8 22 12 36 19 WNW 1011,7 4,5
15.03.2019 23:00:00 9,1 8,3 18 10 50 27 NW 1011,1 10
15.03.2019 22:00:00 11,0 9,5 34 18 - - W 1010,3 10
15.03.2019 21:00:00 11,3 9,3 35 19 54 29 W 1009,7 10
15.03.2019 20:00:00 11,2 9,4 34 18 58 31 WZW 1008,9 10
15.03.2019 19:00:00 11,2 9,6 37 20 - - WZW 1008,3 6
15.03.2019 18:00:00 11,2 9,5 37 20 54 29 WZW 1007,4 9
15.03.2019 17:00:00 10,8 9,7 35 19 61 33 WZW 1007,6 4,0
15.03.2019 16:00:00 11,6 9,4 34 18 - - WZW 1007,5 8
15.03.2019 15:00:00 11,8 9,6 35 19 54 29 WZW 1007,5 10
15.03.2019 14:00:00 11,8 9,3 35 19 58 31 W 1007,5 5
15.03.2019 13:00:00 12,1 8,8 41 22 - - W 1007,5 10
15.03.2019 12:00:00 11,6 8,6 35 19 54 29 W 1007,0 10
15.03.2019 11:00:00 11,0 9,5 37 20 54 29 WZW 1006,8 5
15.03.2019 10:00:00 11,0 9,3 34 18 - - WZW 1006,0 8
15.03.2019 09:00:00 10,7 9,0 34 18 50 27 W 1005,4 8
15.03.2019 08:00:00 10,0 8,8 28 15 43 23 WZW 1005,2 8
15.03.2019 07:00:00 8,8 8,0 26 14 - - ZW 1005,0 6
15.03.2019 06:00:00 7,4 6,5 16 9 22 12 ZZW 1005,5 3,8
15.03.2019 05:00:00 7,1 6,0 15 8 32 18 ZW 1006,7 10
15.03.2019 04:00:00 8,0 5,3 22 12 - - WZW 1007,6 10
15.03.2019 03:00:00 7,5 3,7 22 12 36 19 ZW 1008,4 10
15.03.2019 02:00:00 7,0 3,4 21 11 29 16 ZW 1009,0 10
15.03.2019 01:00:00 7,7 3,2 21 11 - - W 1008,9 10
15.03.2019 00:00:00 7,7 3,1 22 12 32 18 W 1008,7 10
14.03.2019 23:00:00 7,9 3,3 22 12 32 18 W 1008,4 10

tt = temperatuur
td = dauwpunt
ff = windsnelheid
fx = windstoten
dd = windrichting
ppp = luchtdruk
vv = zicht

Weerstations in de omgeving